Year,Month,Day,Hour,Minute,Value (Times are PST for temperature in C)
2012,08,18,00,00,20.10
2012,08,18,00,01,20.10
2012,08,18,00,02,20.10
2012,08,18,00,03,20.10
2012,08,18,00,04,20.00
2012,08,18,00,05,20.00
2012,08,18,00,06,20.00
2012,08,18,00,07,20.00
2012,08,18,00,08,19.90
2012,08,18,00,09,19.90
2012,08,18,00,10,19.90
2012,08,18,00,11,19.90
2012,08,18,00,12,19.90
2012,08,18,00,13,19.80
2012,08,18,00,14,19.80
2012,08,18,00,15,19.80
2012,08,18,00,16,19.80
2012,08,18,00,17,19.80
2012,08,18,00,18,19.80
2012,08,18,00,19,19.70
2012,08,18,00,20,19.70
2012,08,18,00,21,19.70
2012,08,18,00,22,19.70
2012,08,18,00,23,19.70
2012,08,18,00,24,19.60
2012,08,18,00,25,19.60
2012,08,18,00,26,19.60
2012,08,18,00,27,19.60
2012,08,18,00,28,19.60
2012,08,18,00,29,19.60
2012,08,18,00,30,19.60
2012,08,18,00,31,19.50
2012,08,18,00,32,19.50
2012,08,18,00,33,19.60
2012,08,18,00,34,19.60
2012,08,18,00,35,19.60
2012,08,18,00,36,19.60
2012,08,18,00,37,19.60
2012,08,18,00,38,19.60
2012,08,18,00,39,19.60
2012,08,18,00,40,19.60
2012,08,18,00,41,19.50
2012,08,18,00,42,19.50
2012,08,18,00,43,19.50
2012,08,18,00,44,19.50
2012,08,18,00,45,19.40
2012,08,18,00,46,19.40
2012,08,18,00,47,19.40
2012,08,18,00,48,19.40
2012,08,18,00,49,19.30
2012,08,18,00,50,19.30
2012,08,18,00,51,19.30
2012,08,18,00,52,19.30
2012,08,18,00,53,19.30
2012,08,18,00,54,19.30
2012,08,18,00,55,19.20
2012,08,18,00,56,19.20
2012,08,18,00,57,19.20
2012,08,18,00,58,19.20
2012,08,18,00,59,19.20
2012,08,18,01,00,19.20
2012,08,18,01,01,19.20
2012,08,18,01,02,19.20
2012,08,18,01,03,19.10
2012,08,18,01,04,19.10
2012,08,18,01,05,19.10
2012,08,18,01,06,19.10
2012,08,18,01,07,19.10
2012,08,18,01,08,19.10
2012,08,18,01,09,19.10
2012,08,18,01,10,19.00
2012,08,18,01,11,19.00
2012,08,18,01,12,19.00
2012,08,18,01,13,19.00
2012,08,18,01,14,18.90
2012,08,18,01,15,18.90
2012,08,18,01,16,18.90
2012,08,18,01,17,18.90
2012,08,18,01,18,18.90
2012,08,18,01,19,18.80
2012,08,18,01,20,18.80
2012,08,18,01,21,18.80
2012,08,18,01,22,18.80
2012,08,18,01,23,18.80
2012,08,18,01,24,18.70
2012,08,18,01,25,18.70
2012,08,18,01,26,18.70
2012,08,18,01,27,18.70
2012,08,18,01,28,18.70
2012,08,18,01,29,18.70
2012,08,18,01,30,18.60
2012,08,18,01,31,18.60
2012,08,18,01,32,18.60
2012,08,18,01,33,18.60
2012,08,18,01,34,18.60
2012,08,18,01,35,18.60
2012,08,18,01,36,18.60
2012,08,18,01,37,18.60
2012,08,18,01,38,18.60
2012,08,18,01,39,18.60
2012,08,18,01,40,18.50
2012,08,18,01,41,18.50
2012,08,18,01,42,18.50
2012,08,18,01,43,18.50
2012,08,18,01,44,18.50
2012,08,18,01,45,18.50
2012,08,18,01,46,18.50
2012,08,18,01,47,18.50
2012,08,18,01,48,18.50
2012,08,18,01,49,18.50
2012,08,18,01,50,18.40
2012,08,18,01,51,18.40
2012,08,18,01,52,18.40
2012,08,18,01,53,18.40
2012,08,18,01,54,18.40
2012,08,18,01,55,18.40
2012,08,18,01,56,18.40
2012,08,18,01,57,18.40
2012,08,18,01,58,18.40
2012,08,18,01,59,18.40
2012,08,18,02,00,18.40
2012,08,18,02,01,18.40
2012,08,18,02,02,18.40
2012,08,18,02,03,18.40
2012,08,18,02,04,18.30
2012,08,18,02,05,18.30
2012,08,18,02,06,18.30
2012,08,18,02,07,18.30
2012,08,18,02,08,18.30
2012,08,18,02,09,18.30
2012,08,18,02,10,18.30
2012,08,18,02,11,18.30
2012,08,18,02,12,18.20
2012,08,18,02,13,18.20
2012,08,18,02,14,18.20
2012,08,18,02,15,18.20
2012,08,18,02,16,18.20
2012,08,18,02,17,18.20
2012,08,18,02,18,18.20
2012,08,18,02,19,18.20
2012,08,18,02,20,18.10
2012,08,18,02,21,18.10
2012,08,18,02,22,18.10
2012,08,18,02,23,18.10
2012,08,18,02,24,18.10
2012,08,18,02,25,18.10
2012,08,18,02,26,18.10
2012,08,18,02,27,18.10
2012,08,18,02,28,18.00
2012,08,18,02,29,18.00
2012,08,18,02,30,18.00
2012,08,18,02,31,18.00
2012,08,18,02,32,18.00
2012,08,18,02,33,17.90
2012,08,18,02,34,17.90
2012,08,18,02,35,17.90
2012,08,18,02,36,17.90
2012,08,18,02,37,17.90
2012,08,18,02,38,17.90
2012,08,18,02,39,17.90
2012,08,18,02,40,17.90
2012,08,18,02,41,17.80
2012,08,18,02,42,17.80
2012,08,18,02,43,17.80
2012,08,18,02,44,17.80
2012,08,18,02,45,17.80
2012,08,18,02,46,17.80
2012,08,18,02,47,17.80
2012,08,18,02,48,17.80
2012,08,18,02,49,17.80
2012,08,18,02,50,17.70
2012,08,18,02,51,17.70
2012,08,18,02,52,17.70
2012,08,18,02,53,17.70
2012,08,18,02,54,17.70
2012,08,18,02,55,17.70
2012,08,18,02,56,17.70
2012,08,18,02,57,17.70
2012,08,18,02,58,17.70
2012,08,18,02,59,17.70
2012,08,18,03,00,17.70
2012,08,18,03,01,17.70
2012,08,18,03,02,17.70
2012,08,18,03,03,17.80
2012,08,18,03,04,17.80
2012,08,18,03,05,17.80
2012,08,18,03,06,17.80
2012,08,18,03,07,17.80
2012,08,18,03,08,17.80
2012,08,18,03,09,17.80
2012,08,18,03,10,17.80
2012,08,18,03,11,17.80
2012,08,18,03,12,17.80
2012,08,18,03,13,17.80
2012,08,18,03,14,17.80
2012,08,18,03,15,17.80
2012,08,18,03,16,17.80
2012,08,18,03,17,17.80
2012,08,18,03,18,17.80
2012,08,18,03,19,17.80
2012,08,18,03,20,17.80
2012,08,18,03,21,17.80
2012,08,18,03,22,17.80
2012,08,18,03,23,17.80
2012,08,18,03,24,17.80
2012,08,18,03,25,17.80
2012,08,18,03,26,17.80
2012,08,18,03,27,17.70
2012,08,18,03,28,17.70
2012,08,18,03,29,17.70
2012,08,18,03,30,17.70
2012,08,18,03,31,17.70
2012,08,18,03,32,17.70
2012,08,18,03,33,17.70
2012,08,18,03,34,17.70
2012,08,18,03,35,17.70
2012,08,18,03,36,17.70
2012,08,18,03,37,17.70
2012,08,18,03,38,17.70
2012,08,18,03,39,17.70
2012,08,18,03,40,17.70
2012,08,18,03,41,17.70
2012,08,18,03,42,17.70
2012,08,18,03,43,17.60
2012,08,18,03,44,17.60
2012,08,18,03,45,17.60
2012,08,18,03,46,17.60
2012,08,18,03,47,17.60
2012,08,18,03,48,17.60
2012,08,18,03,49,17.60
2012,08,18,03,50,17.50
2012,08,18,03,51,17.50
2012,08,18,03,52,17.50
2012,08,18,03,53,17.50
2012,08,18,03,54,17.50
2012,08,18,03,55,17.40
2012,08,18,03,56,17.40
2012,08,18,03,57,17.40
2012,08,18,03,58,17.40
2012,08,18,03,59,17.40
2012,08,18,04,00,17.40
2012,08,18,04,01,17.40
2012,08,18,04,02,17.40
2012,08,18,04,03,17.30
2012,08,18,04,04,17.30
2012,08,18,04,05,17.30
2012,08,18,04,06,17.30
2012,08,18,04,07,17.30
2012,08,18,04,08,17.30
2012,08,18,04,09,17.30
2012,08,18,04,10,17.20
2012,08,18,04,11,17.20
2012,08,18,04,12,17.20
2012,08,18,04,13,17.20
2012,08,18,04,14,17.20
2012,08,18,04,15,17.20
2012,08,18,04,16,17.20
2012,08,18,04,17,17.20
2012,08,18,04,18,17.20
2012,08,18,04,19,17.20
2012,08,18,04,20,17.20
2012,08,18,04,21,17.20
2012,08,18,04,22,17.20
2012,08,18,04,23,17.20
2012,08,18,04,24,17.20
2012,08,18,04,25,17.10
2012,08,18,04,26,17.10
2012,08,18,04,27,17.10
2012,08,18,04,28,17.10
2012,08,18,04,29,17.10
2012,08,18,04,30,17.00
2012,08,18,04,31,17.00
2012,08,18,04,32,17.00
2012,08,18,04,33,17.00
2012,08,18,04,34,17.00
2012,08,18,04,35,16.90
2012,08,18,04,36,16.90
2012,08,18,04,37,16.90
2012,08,18,04,38,16.90
2012,08,18,04,39,16.90
2012,08,18,04,40,16.90
2012,08,18,04,41,16.90
2012,08,18,04,42,16.90
2012,08,18,04,43,16.90
2012,08,18,04,44,16.90
2012,08,18,04,45,16.90
2012,08,18,04,46,16.90
2012,08,18,04,47,16.90
2012,08,18,04,48,16.80
2012,08,18,04,49,16.80
2012,08,18,04,50,16.80
2012,08,18,04,51,16.80
2012,08,18,04,52,16.80
2012,08,18,04,53,16.80
2012,08,18,04,54,16.80
2012,08,18,04,55,16.80
2012,08,18,04,56,16.80
2012,08,18,04,57,16.80
2012,08,18,04,58,16.80
2012,08,18,04,59,16.70
2012,08,18,05,00,16.70
2012,08,18,05,01,16.70
2012,08,18,05,02,16.70
2012,08,18,05,03,16.70
2012,08,18,05,04,16.70
2012,08,18,05,05,16.70
2012,08,18,05,06,16.70
2012,08,18,05,07,16.70
2012,08,18,05,08,16.70
2012,08,18,05,09,16.70
2012,08,18,05,10,16.70
2012,08,18,05,11,16.70
2012,08,18,05,12,16.60
2012,08,18,05,13,16.60
2012,08,18,05,14,16.60
2012,08,18,05,15,16.60
2012,08,18,05,16,16.60
2012,08,18,05,17,16.60
2012,08,18,05,18,16.60
2012,08,18,05,19,16.60
2012,08,18,05,20,16.60
2012,08,18,05,21,16.60
2012,08,18,05,22,16.60
2012,08,18,05,23,16.60
2012,08,18,05,24,16.60
2012,08,18,05,25,16.60
2012,08,18,05,26,16.60
2012,08,18,05,27,16.50
2012,08,18,05,28,16.50
2012,08,18,05,29,16.50
2012,08,18,05,30,16.50
2012,08,18,05,31,16.50
2012,08,18,05,32,16.50
2012,08,18,05,33,16.50
2012,08,18,05,34,16.50
2012,08,18,05,35,16.40
2012,08,18,05,36,16.40
2012,08,18,05,37,16.40
2012,08,18,05,38,16.40
2012,08,18,05,39,16.40
2012,08,18,05,40,16.40
2012,08,18,05,41,16.40
2012,08,18,05,42,16.40
2012,08,18,05,43,16.40
2012,08,18,05,44,16.40
2012,08,18,05,45,16.40
2012,08,18,05,46,16.40
2012,08,18,05,47,16.40
2012,08,18,05,48,16.40
2012,08,18,05,49,16.40
2012,08,18,05,50,16.40
2012,08,18,05,51,16.30
2012,08,18,05,52,16.30
2012,08,18,05,53,16.30
2012,08,18,05,54,16.30
2012,08,18,05,55,16.30
2012,08,18,05,56,16.30
2012,08,18,05,57,16.30
2012,08,18,05,58,16.30
2012,08,18,05,59,16.30
2012,08,18,06,00,16.30
2012,08,18,06,01,16.30
2012,08,18,06,02,16.30
2012,08,18,06,03,16.30
2012,08,18,06,04,16.30
2012,08,18,06,05,16.20
2012,08,18,06,06,16.20
2012,08,18,06,07,16.20
2012,08,18,06,08,16.20
2012,08,18,06,09,16.20
2012,08,18,06,10,16.20
2012,08,18,06,11,16.20
2012,08,18,06,12,16.20
2012,08,18,06,13,16.20
2012,08,18,06,14,16.20
2012,08,18,06,15,16.20
2012,08,18,06,16,16.20
2012,08,18,06,17,16.20
2012,08,18,06,18,16.20
2012,08,18,06,19,16.20
2012,08,18,06,20,16.20
2012,08,18,06,21,16.20
2012,08,18,06,22,16.20
2012,08,18,06,23,16.20
2012,08,18,06,24,16.20
2012,08,18,06,25,16.20
2012,08,18,06,26,16.20
2012,08,18,06,27,16.20
2012,08,18,06,28,16.20
2012,08,18,06,29,16.20
2012,08,18,06,30,16.20
2012,08,18,06,31,16.20
2012,08,18,06,32,16.20
2012,08,18,06,33,16.20
2012,08,18,06,34,16.20
2012,08,18,06,35,16.20
2012,08,18,06,36,16.20
2012,08,18,06,37,16.20
2012,08,18,06,38,16.20
2012,08,18,06,39,16.20
2012,08,18,06,40,16.20
2012,08,18,06,41,16.20
2012,08,18,06,42,16.20
2012,08,18,06,43,16.10
2012,08,18,06,44,16.10
2012,08,18,06,45,16.10
2012,08,18,06,46,16.10
2012,08,18,06,47,16.10
2012,08,18,06,48,16.10
2012,08,18,06,49,16.10
2012,08,18,06,50,16.10
2012,08,18,06,51,16.10
2012,08,18,06,52,16.10
2012,08,18,06,53,16.10
2012,08,18,06,54,16.10
2012,08,18,06,55,16.10
2012,08,18,06,56,16.10
2012,08,18,06,57,16.10
2012,08,18,06,58,16.10
2012,08,18,06,59,16.10
2012,08,18,07,00,16.10
2012,08,18,07,01,16.10
2012,08,18,07,02,16.10
2012,08,18,07,03,16.10
2012,08,18,07,04,16.10
2012,08,18,07,05,16.10
2012,08,18,07,06,16.20
2012,08,18,07,07,16.20
2012,08,18,07,08,16.20
2012,08,18,07,09,16.20
2012,08,18,07,10,16.20
2012,08,18,07,11,16.20
2012,08,18,07,12,16.20
2012,08,18,07,13,16.20
2012,08,18,07,14,16.20
2012,08,18,07,15,16.20
2012,08,18,07,16,16.20
2012,08,18,07,17,16.20
2012,08,18,07,18,16.30
2012,08,18,07,19,16.30
2012,08,18,07,20,16.30
2012,08,18,07,21,16.30
2012,08,18,07,22,16.30
2012,08,18,07,23,16.30
2012,08,18,07,24,16.30
2012,08,18,07,25,16.30
2012,08,18,07,26,16.30
2012,08,18,07,27,16.30
2012,08,18,07,28,16.30
2012,08,18,07,29,16.30
2012,08,18,07,30,16.30
2012,08,18,07,31,16.40
2012,08,18,07,32,16.40
2012,08,18,07,33,16.40
2012,08,18,07,34,16.40
2012,08,18,07,35,16.40
2012,08,18,07,36,16.40
2012,08,18,07,37,16.40
2012,08,18,07,38,16.40
2012,08,18,07,39,16.40
2012,08,18,07,40,16.40
2012,08,18,07,41,16.40
2012,08,18,07,42,16.40
2012,08,18,07,43,16.40
2012,08,18,07,44,16.40
2012,08,18,07,45,16.50
2012,08,18,07,46,16.50
2012,08,18,07,47,16.50
2012,08,18,07,48,16.50
2012,08,18,07,49,16.60
2012,08,18,07,50,16.60
2012,08,18,07,51,16.60
2012,08,18,07,52,16.60
2012,08,18,07,53,16.70
2012,08,18,07,54,16.70
2012,08,18,07,55,16.70
2012,08,18,07,56,16.70
2012,08,18,07,57,16.70
2012,08,18,07,58,16.80
2012,08,18,07,59,16.80
2012,08,18,08,00,16.80
2012,08,18,08,01,16.80
2012,08,18,08,02,16.80
2012,08,18,08,03,16.80
2012,08,18,08,04,16.80
2012,08,18,08,05,16.80
2012,08,18,08,06,16.80
2012,08,18,08,07,16.80
2012,08,18,08,08,16.80
2012,08,18,08,09,16.80
2012,08,18,08,10,16.80
2012,08,18,08,11,16.80
2012,08,18,08,12,16.80
2012,08,18,08,13,16.80
2012,08,18,08,14,16.80
2012,08,18,08,15,16.80
2012,08,18,08,16,16.80
2012,08,18,08,17,16.90
2012,08,18,08,18,16.90
2012,08,18,08,19,16.90
2012,08,18,08,20,16.90
2012,08,18,08,21,16.90
2012,08,18,08,22,16.90
2012,08,18,08,23,16.90
2012,08,18,08,24,16.90
2012,08,18,08,25,16.90
2012,08,18,08,26,16.90
2012,08,18,08,27,16.90
2012,08,18,08,28,16.90
2012,08,18,08,29,16.90
2012,08,18,08,30,16.90
2012,08,18,08,31,17.00
2012,08,18,08,32,17.00
2012,08,18,08,33,17.00
2012,08,18,08,34,17.00
2012,08,18,08,35,17.10
2012,08,18,08,36,17.10
2012,08,18,08,37,17.10
2012,08,18,08,38,17.10
2012,08,18,08,39,17.10
2012,08,18,08,40,17.20
2012,08,18,08,41,17.20
2012,08,18,08,42,17.20
2012,08,18,08,43,17.20
2012,08,18,08,44,17.20
2012,08,18,08,45,17.20
2012,08,18,08,46,17.20
2012,08,18,08,47,17.30
2012,08,18,08,48,17.30
2012,08,18,08,49,17.30
2012,08,18,08,50,17.30
2012,08,18,08,51,17.30
2012,08,18,08,52,17.40
2012,08,18,08,53,17.40
2012,08,18,08,54,17.40
2012,08,18,08,55,17.50
2012,08,18,08,56,17.50
2012,08,18,08,57,17.60
2012,08,18,08,58,17.60
2012,08,18,08,59,17.70
2012,08,18,09,00,17.70
2012,08,18,09,01,17.80
2012,08,18,09,02,17.80
2012,08,18,09,03,17.90
2012,08,18,09,04,18.00
2012,08,18,09,05,18.00
2012,08,18,09,06,18.10
2012,08,18,09,07,18.20
2012,08,18,09,08,18.30
2012,08,18,09,09,18.40
2012,08,18,09,10,18.50
2012,08,18,09,11,18.60
2012,08,18,09,12,18.70
2012,08,18,09,13,18.80
2012,08,18,09,14,18.90
2012,08,18,09,15,19.00
2012,08,18,09,16,19.00
2012,08,18,09,17,19.10
2012,08,18,09,18,19.20
2012,08,18,09,19,19.30
2012,08,18,09,20,19.40
2012,08,18,09,21,19.50
2012,08,18,09,22,19.50
2012,08,18,09,23,19.60
2012,08,18,09,24,19.60
2012,08,18,09,25,19.70
2012,08,18,09,26,19.70
2012,08,18,09,27,19.80
2012,08,18,09,28,19.80
2012,08,18,09,29,19.80
2012,08,18,09,30,19.80
2012,08,18,09,31,19.90
2012,08,18,09,32,19.90
2012,08,18,09,33,19.90
2012,08,18,09,34,19.90
2012,08,18,09,35,20.00
2012,08,18,09,36,20.00
2012,08,18,09,37,20.00
2012,08,18,09,38,20.00
2012,08,18,09,39,20.00
2012,08,18,09,40,20.10
2012,08,18,09,41,20.10
2012,08,18,09,42,20.10
2012,08,18,09,43,20.10
2012,08,18,09,44,20.10
2012,08,18,09,45,20.20
2012,08,18,09,46,20.20
2012,08,18,09,47,20.20
2012,08,18,09,48,20.20
2012,08,18,09,49,20.30
2012,08,18,09,50,20.30
2012,08,18,09,51,20.30
2012,08,18,09,52,20.30
2012,08,18,09,53,20.40
2012,08,18,09,54,20.40
2012,08,18,09,55,20.40
2012,08,18,09,56,20.40
2012,08,18,09,57,20.50
2012,08,18,09,58,20.50
2012,08,18,09,59,20.50
2012,08,18,10,00,20.60
2012,08,18,10,01,20.60
2012,08,18,10,02,20.60
2012,08,18,10,03,20.70
2012,08,18,10,04,20.70
2012,08,18,10,05,20.80
2012,08,18,10,06,20.80
2012,08,18,10,07,20.80
2012,08,18,10,08,20.90
2012,08,18,10,09,20.90
2012,08,18,10,10,20.90
2012,08,18,10,11,21.00
2012,08,18,10,12,21.10
2012,08,18,10,13,21.10
2012,08,18,10,14,21.20
2012,08,18,10,15,21.20
2012,08,18,10,16,21.30
2012,08,18,10,17,21.30
2012,08,18,10,18,21.30
2012,08,18,10,19,21.40
2012,08,18,10,20,21.40
2012,08,18,10,21,21.50
2012,08,18,10,22,21.50
2012,08,18,10,23,21.60
2012,08,18,10,24,21.60
2012,08,18,10,25,21.70
2012,08,18,10,26,21.70
2012,08,18,10,27,21.70
2012,08,18,10,28,21.70
2012,08,18,10,29,21.80
2012,08,18,10,30,21.80
2012,08,18,10,31,21.80
2012,08,18,10,32,21.80
2012,08,18,10,33,21.80
2012,08,18,10,34,21.80
2012,08,18,10,35,21.80
2012,08,18,10,36,21.80
2012,08,18,10,37,21.90
2012,08,18,10,38,21.90
2012,08,18,10,39,21.90
2012,08,18,10,40,22.00
2012,08,18,10,41,22.10
2012,08,18,10,42,22.10
2012,08,18,10,43,22.20
2012,08,18,10,44,22.20
2012,08,18,10,45,22.30
2012,08,18,10,46,22.30
2012,08,18,10,47,22.30
2012,08,18,10,48,22.30
2012,08,18,10,49,22.40
2012,08,18,10,50,22.40
2012,08,18,10,51,22.40
2012,08,18,10,52,22.50
2012,08,18,10,53,22.50
2012,08,18,10,54,22.50
2012,08,18,10,55,22.60
2012,08,18,10,56,22.60
2012,08,18,10,57,22.70
2012,08,18,10,58,22.70
2012,08,18,10,59,22.70
2012,08,18,11,00,22.70
2012,08,18,11,01,22.80
2012,08,18,11,02,22.80
2012,08,18,11,03,22.80
2012,08,18,11,04,22.80
2012,08,18,11,05,22.80
2012,08,18,11,06,22.90
2012,08,18,11,07,22.90
2012,08,18,11,08,22.90
2012,08,18,11,09,23.00
2012,08,18,11,10,23.00
2012,08,18,11,11,23.00
2012,08,18,11,12,23.10
2012,08,18,11,13,23.10
2012,08,18,11,14,23.10
2012,08,18,11,15,23.20
2012,08,18,11,16,23.20
2012,08,18,11,17,23.20
2012,08,18,11,18,23.20
2012,08,18,11,19,23.20
2012,08,18,11,20,23.30
2012,08,18,11,21,23.30
2012,08,18,11,22,23.30
2012,08,18,11,23,23.40
2012,08,18,11,24,23.40
2012,08,18,11,25,23.40
2012,08,18,11,26,23.40
2012,08,18,11,27,23.40
2012,08,18,11,28,23.40
2012,08,18,11,29,23.50
2012,08,18,11,30,23.50
2012,08,18,11,31,23.60
2012,08,18,11,32,23.60
2012,08,18,11,33,23.60
2012,08,18,11,34,23.60
2012,08,18,11,35,23.70
2012,08,18,11,36,23.70
2012,08,18,11,37,23.70
2012,08,18,11,38,23.70
2012,08,18,11,39,23.80
2012,08,18,11,40,23.80
2012,08,18,11,41,23.80
2012,08,18,11,42,23.80
2012,08,18,11,43,23.80
2012,08,18,11,44,23.90
2012,08,18,11,45,23.90
2012,08,18,11,46,23.90
2012,08,18,11,47,23.90
2012,08,18,11,48,23.90
2012,08,18,11,49,23.90
2012,08,18,11,50,24.00
2012,08,18,11,51,24.00
2012,08,18,11,52,24.00
2012,08,18,11,53,24.10
2012,08,18,11,54,24.10
2012,08,18,11,55,24.10
2012,08,18,11,56,24.20
2012,08,18,11,57,24.20
2012,08,18,11,58,24.30
2012,08,18,11,59,24.30
2012,08,18,12,00,24.30
2012,08,18,12,01,24.30
2012,08,18,12,02,24.40
2012,08,18,12,03,24.40
2012,08,18,12,04,24.40
2012,08,18,12,05,24.40
2012,08,18,12,06,24.50
2012,08,18,12,07,24.50
2012,08,18,12,08,24.60
2012,08,18,12,09,24.60
2012,08,18,12,10,24.60
2012,08,18,12,11,24.70
2012,08,18,12,12,24.70
2012,08,18,12,13,24.70
2012,08,18,12,14,24.70
2012,08,18,12,15,24.80
2012,08,18,12,16,24.80
2012,08,18,12,17,24.80
2012,08,18,12,18,24.80
2012,08,18,12,19,24.80
2012,08,18,12,20,24.70
2012,08,18,12,21,24.70
2012,08,18,12,22,24.70
2012,08,18,12,23,24.70
2012,08,18,12,24,24.60
2012,08,18,12,25,24.50
2012,08,18,12,26,24.50
2012,08,18,12,27,24.40
2012,08,18,12,28,24.30
2012,08,18,12,29,24.20
2012,08,18,12,30,24.20
2012,08,18,12,31,24.10
2012,08,18,12,32,24.00
2012,08,18,12,33,24.00
2012,08,18,12,34,23.90
2012,08,18,12,35,23.90
2012,08,18,12,36,23.90
2012,08,18,12,37,23.90
2012,08,18,12,38,23.90
2012,08,18,12,39,23.90
2012,08,18,12,40,23.90
2012,08,18,12,41,23.90
2012,08,18,12,42,23.90
2012,08,18,12,43,23.90
2012,08,18,12,44,23.90
2012,08,18,12,45,23.90
2012,08,18,12,46,23.90
2012,08,18,12,47,23.90
2012,08,18,12,48,23.90
2012,08,18,12,49,23.90
2012,08,18,12,50,23.90
2012,08,18,12,51,23.90
2012,08,18,12,52,23.90
2012,08,18,12,53,23.90
2012,08,18,12,54,23.90
2012,08,18,12,55,23.90
2012,08,18,12,56,23.90
2012,08,18,12,57,23.90
2012,08,18,12,58,24.00
2012,08,18,12,59,24.00
2012,08,18,13,00,24.10
2012,08,18,13,01,24.10
2012,08,18,13,02,24.10
2012,08,18,13,03,24.10
2012,08,18,13,04,24.10
2012,08,18,13,05,24.20
2012,08,18,13,06,24.20
2012,08,18,13,07,24.20
2012,08,18,13,08,24.20
2012,08,18,13,09,24.20
2012,08,18,13,10,24.20
2012,08,18,13,11,24.30
2012,08,18,13,12,24.30
2012,08,18,13,13,24.30
2012,08,18,13,14,24.40
2012,08,18,13,15,24.40
2012,08,18,13,16,24.40
2012,08,18,13,17,24.40
2012,08,18,13,18,24.40
2012,08,18,13,19,24.40
2012,08,18,13,20,24.50
2012,08,18,13,21,24.50
2012,08,18,13,22,24.50
2012,08,18,13,23,24.50
2012,08,18,13,24,24.50
2012,08,18,13,25,24.40
2012,08,18,13,26,24.40
2012,08,18,13,27,24.40
2012,08,18,13,28,24.40
2012,08,18,13,29,24.30
2012,08,18,13,30,24.30
2012,08,18,13,31,24.30
2012,08,18,13,32,24.20
2012,08,18,13,33,24.20
2012,08,18,13,34,24.10
2012,08,18,13,35,24.10
2012,08,18,13,36,24.00
2012,08,18,13,37,23.90
2012,08,18,13,38,23.90
2012,08,18,13,39,23.80
2012,08,18,13,40,23.80
2012,08,18,13,41,23.70
2012,08,18,13,42,23.70
2012,08,18,13,43,23.60
2012,08,18,13,44,23.60
2012,08,18,13,45,23.50
2012,08,18,13,46,23.50
2012,08,18,13,47,23.40
2012,08,18,13,48,23.40
2012,08,18,13,49,23.40
2012,08,18,13,50,23.30
2012,08,18,13,51,23.30
2012,08,18,13,52,23.30
2012,08,18,13,53,23.20
2012,08,18,13,54,23.20
2012,08,18,13,55,23.20
2012,08,18,13,56,23.10
2012,08,18,13,57,23.00
2012,08,18,13,58,22.90
2012,08,18,13,59,22.80
2012,08,18,14,00,22.70
2012,08,18,14,01,22.70
2012,08,18,14,02,22.50
2012,08,18,14,03,22.40
2012,08,18,14,04,22.30
2012,08,18,14,05,22.20
2012,08,18,14,06,22.20
2012,08,18,14,07,22.10
2012,08,18,14,08,22.00
2012,08,18,14,09,21.90
2012,08,18,14,10,21.80
2012,08,18,14,11,21.80
2012,08,18,14,12,21.80
2012,08,18,14,13,21.70
2012,08,18,14,14,21.70
2012,08,18,14,15,21.60
2012,08,18,14,16,21.50
2012,08,18,14,17,21.50
2012,08,18,14,18,21.40
2012,08,18,14,19,21.40
2012,08,18,14,20,21.30
2012,08,18,14,21,21.30
2012,08,18,14,22,21.30
2012,08,18,14,23,21.40
2012,08,18,14,24,21.40
2012,08,18,14,25,21.40
2012,08,18,14,26,21.50
2012,08,18,14,27,21.50
2012,08,18,14,28,21.60
2012,08,18,14,29,21.60
2012,08,18,14,30,21.60
2012,08,18,14,31,21.60
2012,08,18,14,32,21.60
2012,08,18,14,33,21.60
2012,08,18,14,34,21.70
2012,08,18,14,35,21.70
2012,08,18,14,36,21.70
2012,08,18,14,37,21.80
2012,08,18,14,38,21.80
2012,08,18,14,39,21.80
2012,08,18,14,40,21.80
2012,08,18,14,41,21.80
2012,08,18,14,42,21.80
2012,08,18,14,43,21.80
2012,08,18,14,44,21.80
2012,08,18,14,45,21.80
2012,08,18,14,46,21.80
2012,08,18,14,47,21.80
2012,08,18,14,48,21.80
2012,08,18,14,49,21.80
2012,08,18,14,50,21.80
2012,08,18,14,51,21.80
2012,08,18,14,52,21.80
2012,08,18,14,53,21.80
2012,08,18,14,54,21.80
2012,08,18,14,55,21.80
2012,08,18,14,56,21.80
2012,08,18,14,57,21.80
2012,08,18,14,58,21.80
2012,08,18,14,59,21.80
2012,08,18,15,00,21.80
2012,08,18,15,01,21.70
2012,08,18,15,02,21.70
2012,08,18,15,03,21.70
2012,08,18,15,04,21.70
2012,08,18,15,05,21.70
2012,08,18,15,06,21.70
2012,08,18,15,07,21.70
2012,08,18,15,08,21.80
2012,08,18,15,09,21.80
2012,08,18,15,10,21.80
2012,08,18,15,11,21.80
2012,08,18,15,12,21.80
2012,08,18,15,13,21.80
2012,08,18,15,14,21.80
2012,08,18,15,15,21.80
2012,08,18,15,16,21.80
2012,08,18,15,17,21.80
2012,08,18,15,18,21.80
2012,08,18,15,19,21.80
2012,08,18,15,20,21.90
2012,08,18,15,21,21.90
2012,08,18,15,22,21.90
2012,08,18,15,23,21.90
2012,08,18,15,24,21.90
2012,08,18,15,25,22.00
2012,08,18,15,26,22.00
2012,08,18,15,27,22.10
2012,08,18,15,28,22.10
2012,08,18,15,29,22.10
2012,08,18,15,30,22.20
2012,08,18,15,31,22.20
2012,08,18,15,32,22.20
2012,08,18,15,33,22.20
2012,08,18,15,34,22.30
2012,08,18,15,35,22.30
2012,08,18,15,36,22.30
2012,08,18,15,37,22.30
2012,08,18,15,38,22.30
2012,08,18,15,39,22.30
2012,08,18,15,40,22.30
2012,08,18,15,41,22.30
2012,08,18,15,42,22.30
2012,08,18,15,43,22.30
2012,08,18,15,44,22.30
2012,08,18,15,45,22.30
2012,08,18,15,46,22.30
2012,08,18,15,47,22.30
2012,08,18,15,48,22.30
2012,08,18,15,49,22.30
2012,08,18,15,50,22.30
2012,08,18,15,51,22.20
2012,08,18,15,52,22.20
2012,08,18,15,53,22.20
2012,08,18,15,54,22.20
2012,08,18,15,55,22.10
2012,08,18,15,56,22.10
2012,08,18,15,57,22.10
2012,08,18,15,58,22.10
2012,08,18,15,59,22.10
2012,08,18,16,00,22.10
2012,08,18,16,01,22.10
2012,08,18,16,02,22.10
2012,08,18,16,03,22.10
2012,08,18,16,04,22.10
2012,08,18,16,05,22.10
2012,08,18,16,06,22.10
2012,08,18,16,07,22.10
2012,08,18,16,08,22.10
2012,08,18,16,09,22.10
2012,08,18,16,10,22.10
2012,08,18,16,11,22.00
2012,08,18,16,12,22.00
2012,08,18,16,13,22.00
2012,08,18,16,14,22.00
2012,08,18,16,15,22.00
2012,08,18,16,16,22.00
2012,08,18,16,17,22.00
2012,08,18,16,18,21.90
2012,08,18,16,19,21.90
2012,08,18,16,20,21.90
2012,08,18,16,21,21.80
2012,08,18,16,22,21.80
2012,08,18,16,23,21.80
2012,08,18,16,24,21.80
2012,08,18,16,25,21.70
2012,08,18,16,26,21.70
2012,08,18,16,27,21.60
2012,08,18,16,28,21.50
2012,08,18,16,29,21.40
2012,08,18,16,30,21.30
2012,08,18,16,31,21.20
2012,08,18,16,32,21.10
2012,08,18,16,33,21.00
2012,08,18,16,34,20.90
2012,08,18,16,35,20.90
2012,08,18,16,36,20.80
2012,08,18,16,37,20.80
2012,08,18,16,38,20.80
2012,08,18,16,39,20.80
2012,08,18,16,40,20.80
2012,08,18,16,41,20.80
2012,08,18,16,42,20.70
2012,08,18,16,43,20.70
2012,08,18,16,44,20.70
2012,08,18,16,45,20.70
2012,08,18,16,46,20.70
2012,08,18,16,47,20.70
2012,08,18,16,48,20.80
2012,08,18,16,49,20.80
2012,08,18,16,50,20.80
2012,08,18,16,51,20.80
2012,08,18,16,52,20.80
2012,08,18,16,53,20.80
2012,08,18,16,54,20.80
2012,08,18,16,55,20.90
2012,08,18,16,56,20.80
2012,08,18,16,57,20.80
2012,08,18,16,58,20.80
2012,08,18,16,59,20.80
2012,08,18,17,00,20.80
2012,08,18,17,01,20.80
2012,08,18,17,02,20.80
2012,08,18,17,03,20.70
2012,08,18,17,04,20.70
2012,08,18,17,05,20.70
2012,08,18,17,06,20.60
2012,08,18,17,07,20.60
2012,08,18,17,08,20.60
2012,08,18,17,09,20.50
2012,08,18,17,10,20.50
2012,08,18,17,11,20.40
2012,08,18,17,12,20.40
2012,08,18,17,13,20.40
2012,08,18,17,14,20.40
2012,08,18,17,15,20.30
2012,08,18,17,16,20.30
2012,08,18,17,17,20.30
2012,08,18,17,18,20.30
2012,08,18,17,19,20.30